Location: Turtle Rock Observatory
(36.6913°N, 81.9708°W)
Time: 07:43:09
(UTC-04:00)

Lacrosse 5 rocket - Visible Passes

Search period start: 25 March 2017 00:00
Search period end: 04 April 2017 00:00
Orbit: 461 x 642 km, 57.0° (Epoch: 21 March)

Date Brightness Start Highest point End Pass type
(mag) Time Alt. Az. Time Alt. Az. Time Alt. Az.
25 Mar 3.5 22:05:14 10° NNW 22:06:37 19° NNW 22:06:37 19° NNW visible
26 Mar 3.1 22:00:32 10° NNW 22:02:25 25° NNW 22:02:25 25° NNW visible
27 Mar 3.5 20:18:41 10° NNE 20:19:49 11° NNE 20:20:55 10° NE visible
27 Mar 2.5 21:55:54 10° NW 21:58:16 35° NNW 21:58:16 35° NNW visible
28 Mar 3.3 20:13:22 10° N 20:15:28 14° NNE 20:17:31 10° ENE visible
28 Mar 2.0 21:51:19 10° NW 21:54:11 47° NW 21:54:11 47° NW visible
29 Mar 3.0 20:08:21 10° N 20:11:05 18° NE 20:13:42 10° E visible
29 Mar 1.9 21:46:50 10° NW 21:50:11 48° WSW 21:50:11 48° WSW visible
30 Mar 2.3 21:42:26 10° WNW 21:45:56 34° SW 21:46:17 33° SW visible
31 Mar 3.0 21:38:11 10° WNW 21:41:16 23° WSW 21:42:28 20° SSW visible
01 Apr 3.7 21:34:10 10° W 21:36:33 16° WSW 21:38:46 11° SSW visible
02 Apr 4.0 21:30:51 10° WSW 21:31:50 11° WSW 21:32:49 10° SW visible
